{"data":{"norad_id":63821,"intl_designator":"2025-092T","name":"STARLINK-34047","alt_names":[],"object_type":"PAYLOAD","status":"ACTIVE","operator":null,"country":"US","launch_date":"2025-05-04","launch_site_code":"AFETR","launch_vehicle":null,"mission":null,"orbit_class":"UNKNOWN","rcs_meters":null,"size_class":null,"mass_kg":null,"dimensions":null,"purposes":["comms"],"wikipedia_slug":null,"has_3d_model":false,"image_url":null,"decayed_at":null,"tle_current":{"epoch":"2026-09-20T02:05:28.128768Z","epoch_age_seconds":185590,"freshness":"STALE","line1":"1 63821U 25092T   26263.08713112  .00011739  00000+0  43527-3 0  9994","line2":"2 63821  43.0030 154.8236 0001253 260.6765  99.3945 15.27591450 78399","mean_motion":15.2759145,"eccentricity":0.0001253,"inclination_deg":43.003,"raan_deg":154.8236,"arg_perigee_deg":260.6765,"mean_anomaly_deg":99.3945,"bstar":0.00043527,"rev_number":7839,"period_min":94.266042141045,"perigee_km":482.15510851279,"apogee_km":483.87451315659,"semimajor_km":6861.1518108347,"source":"CELESTRAK","updated_at":"2026-09-21T09:00:35.107300Z"}}}